Precipitable_Water
0.49 0.40 0.37 0.42 0.34 0.32 0.34 0.39 0.61 0.75 0.86 1.08 1.08 1.03 1.00 1.06 0.94 0.81 1.62 1.68 1.81 1.83 1.78 1.71 1.72 1.64 1.57 1.50 1.45 1.36 1.19 1.00 0.91 0.85 0.79 0.67 0.58 0.58 0.58 0.59 0.60 0.61 0.61 0.60 0.61 0.64 0.65 0.64 0.62
0.40 0.35 0.40 0.38 0.26 0.25 0.30 0.38 0.60 0.88 0.97 1.07 1.07 1.09 1.01 0.94 1.33 1.39 1.48 1.77 1.84 1.79 1.72 1.72 1.69 1.65 1.56 1.50 1.42 1.23 0.99 0.92 0.84 0.77 0.64 0.56 0.58 0.59 0.62 0.63 0.67 0.71 0.71 0.69 0.73 0.72 0.69 0.70 0.70
0.37 0.36 0.37 0.33 0.26 0.24 0.30 0.62 0.74 0.83 0.95 1.01 1.01 1.17 1.08 1.05 1.36 1.47 1.75 1.82 1.82 1.82 1.76 1.75 1.69 1.64 1.57 1.46 1.27 1.01 0.92 0.85 0.75 0.67 0.59 0.60 0.62 0.64 0.67 0.75 0.80 0.81 0.78 0.78 0.77 0.73 0.65 0.62 0.62
0.29 0.34 0.37 0.31 0.25 0.31 0.50 0.78 0.80 0.80 0.86 0.97 1.10 0.98 1.20 1.38 1.45 1.50 1.76 1.71 1.80 1.81 1.82 1.74 1.65 1.58 1.56 1.33 1.08 0.94 0.87 0.75 0.71 0.64 0.64 0.65 0.66 0.74 0.79 0.81 0.81 0.81 0.82 0.81 0.76 0.73 0.69 0.65 0.59
0.34 0.36 0.32 0.30 0.31 0.32 0.56 0.85 0.90 0.86 0.87 0.93 0.99 0.94 1.07 1.36 1.46 1.51 1.66 1.77 1.82 1.82 1.81 1.71 1.62 1.62 1.46 1.16 1.03 0.91 0.76 0.71 0.68 0.73 0.72 0.75 0.81 0.82 0.81 0.79 0.80 0.81 0.80 0.77 0.74 0.73 0.73 0.72 0.69
0.29 0.34 0.29 0.30 0.45 0.49 0.56 0.85 0.88 0.88 0.84 0.84 0.86 0.86 1.01 1.44 1.35 1.58 1.90 1.87 1.83 1.73 1.71 1.66 1.64 1.57 1.25 1.10 0.98 0.79 0.72 0.70 0.77 0.78 0.84 0.86 0.83 0.84 0.80 0.81 0.81 0.81 0.80 0.77 0.76 0.75 0.76 0.75 0.74
0.29 0.29 0.32 0.45 0.53 0.57 0.57 0.81 0.80 0.80 0.80 0.81 1.00 0.83 1.05 1.28 1.42 1.77 1.68 1.70 1.68 1.69 1.66 1.67 1.59 1.33 1.15 1.04 0.87 0.72 0.70 0.78 0.84 0.90 0.90 0.85 0.83 0.84 0.85 0.86 0.86 0.86 0.86 0.84 0.80 0.76 0.76 0.76 0.75
0.34 0.35 0.44 0.53 0.52 0.53 0.74 0.81 0.84 0.79 0.75 1.00 1.08 0.79 0.85 1.14 1.46 1.53 1.57 1.56 1.58 1.63 1.65 1.59 1.29 1.13 1.07 0.90 0.74 0.67 0.74 0.90 0.94 0.96 0.93 0.90 0.88 0.87 0.88 0.92 0.91 0.91 0.92 0.90 0.85 0.82 0.78 0.74 0.74
0.35 0.28 0.35 0.55 0.54 0.60 0.78 0.76 0.82 0.85 0.86 0.96 0.99 1.00 1.01 1.25 1.32 1.33 1.37 1.40 1.44 1.51 1.50 1.19 1.11 1.07 0.96 0.82 0.70 0.73 0.88 0.98 1.02 1.01 0.97 0.98 1.03 1.01 1.00 0.95 0.91 0.92 0.94 0.92 0.88 0.84 0.74 0.72 0.73
0.31 0.31 0.32 0.45 0.62 0.61 0.69 0.75 0.81 0.85 0.84 0.81 0.90 1.03 1.04 1.15 1.13 1.14 1.17 1.19 1.27 1.22 1.06 1.05 1.00 0.91 0.78 0.71 0.75 0.89 0.99 1.08 1.11 1.11 1.11 1.13 1.13 1.09 1.02 0.92 0.88 0.88 0.89 0.87 0.84 0.79 0.75 0.76 0.74
0.36 0.35 0.38 0.52 0.68 0.73 0.69 0.71 0.74 0.71 0.67 0.70 0.73 0.81 0.89 0.98 1.05 1.07 1.06 1.10 0.95 0.95 0.94 0.91 0.85 0.78 0.71 0.76 0.84 0.95 1.09 1.14 1.15 1.16 1.19 1.20 1.17 1.16 1.08 0.96 0.97 0.94 0.91 0.90 0.86 0.82 0.79 0.78 0.75
0.35 0.39 0.39 0.59 0.69 0.66 0.59 0.69 0.75 0.77 0.67 0.70 0.73 0.80 0.79 0.81 0.85 0.89 0.85 0.80 0.81 0.83 0.80 0.76 0.75 0.75 0.79 0.85 0.92 1.04 1.12 1.16 1.19 1.23 1.24 1.22 1.21 1.14 1.04 0.99 0.98 0.95 0.95 0.89 0.87 0.84 0.82 0.76 0.73
0.36 0.38 0.46 0.56 0.59 0.53 0.57 0.62 0.65 0.68 0.64 0.67 0.77 0.78 0.73 0.67 0.74 0.79 0.76 0.75 0.80 0.81 0.83 0.82 0.80 0.82 0.87 0.96 1.04 1.09 1.17 1.25 1.33 1.39 1.36 1.26 1.18 1.11 1.07 1.02 0.99 0.98 0.97 0.92 0.89 0.86 0.79 0.77 0.74
0.40 0.37 0.40 0.49 0.51 0.58 0.56 0.53 0.66 0.60 0.63 0.65 0.69 0.72 0.71 0.63 0.60 0.59 0.64 0.73 0.83 0.92 0.94 0.98 0.98 0.98 1.04 1.07 1.14 1.20 1.24 1.28 1.33 1.40 1.43 1.35 1.28 1.17 1.09 1.05 1.02 0.99 0.97 0.96 0.90 0.86 0.80 0.77 0.73
0.37 0.32 0.31 0.38 0.43 0.56 0.52 0.39 0.38 0.51 0.59 0.68 0.72 0.74 0.75 0.75 0.71 0.61 0.65 0.74 0.84 0.99 1.11 1.12 1.14 1.19 1.21 1.21 1.25 1.20 1.19 1.22 1.24 1.31 1.35 1.30 1.25 1.15 1.10 1.07 1.04 1.00 0.95 0.85 0.84 0.80 0.75 0.71 0.69
0.30 0.30 0.25 0.31 0.37 0.49 0.45 0.28 0.34 0.45 0.55 0.60 0.70 0.72 0.78 0.78 0.72 0.70 0.71 0.75 0.87 1.03 1.13 1.23 1.27 1.29 1.31 1.29 1.28 1.31 1.31 1.14 1.23 1.28 1.30 1.24 1.17 1.13 1.11 1.04 0.97 0.88 0.82 0.79 0.75 0.71 0.68 0.63 0.59
0.31 0.26 0.26 0.27 0.35 0.40 0.35 0.23 0.31 0.45 0.51 0.54 0.64 0.68 0.72 0.73 0.77 0.85 0.87 0.85 0.93 1.07 1.19 1.25 1.31 1.29 1.31 1.37 1.24 1.24 1.25 1.26 1.25 1.21 1.13 1.10 1.08 1.03 0.96 0.88 0.80 0.78 0.75 0.74 0.70 0.64 0.58 0.52 0.48
0.28 0.26 0.22 0.22 0.28 0.27 0.28 0.25 0.31 0.43 0.49 0.51 0.57 0.64 0.68 0.70 0.78 0.89 0.92 0.97 1.07 1.17 1.22 1.26 1.31 1.31 1.36 1.23 1.25 1.14 1.17 1.10 1.06 1.02 1.01 0.97 0.89 0.84 0.77 0.76 0.76 0.74 0.70 0.64 0.61 0.54 0.49 0.43 0.40
0.28 0.27 0.28 0.29 0.30 0.26 0.25 0.26 0.36 0.47 0.51 0.52 0.55 0.60 0.63 0.68 0.83 0.91 0.95 1.02 1.07 1.15 1.19 1.25 1.26 1.33 1.25 1.11 1.05 0.98 0.92 0.89 0.91 0.88 0.83 0.78 0.77 0.77 0.77 0.74 0.71 0.68 0.63 0.59 0.54 0.46 0.40 0.37 0.41
0.28 0.26 0.28 0.33 0.37 0.35 0.32 0.29 0.40 0.45 0.50 0.55 0.55 0.56 0.61 0.69 0.77 0.85 0.94 1.02 1.07 1.12 1.20 1.26 1.27 1.21 1.13 1.08 0.93 0.87 0.84 0.85 0.82 0.80 0.79 0.78 0.78 0.77 0.75 0.72 0.67 0.60 0.54 0.53 0.45 0.40 0.36 0.34 0.37
0.33 0.32 0.30 0.30 0.34 0.36 0.32 0.30 0.34 0.41 0.46 0.50 0.56 0.61 0.64 0.69 0.73 0.82 0.90 0.98 1.08 1.12 1.18 1.13 1.12 1.09 0.99 0.89 0.89 0.90 0.90 0.84 0.77 0.78 0.77 0.78 0.78 0.75 0.72 0.66 0.58 0.54 0.47 0.40 0.43 0.42 0.37 0.33 0.34
0.30 0.35 0.32 0.29 0.28 0.24 0.33 0.24 0.30 0.36 0.38 0.44 0.49 0.54 0.60 0.66 0.77 0.85 0.93 0.98 1.00 0.97 1.06 1.09 0.99 0.88 0.89 0.93 0.90 0.86 0.79 0.76 0.81 0.80 0.79 0.77 0.74 0.71 0.65 0.58 0.50 0.45 0.44 0.43 0.42 0.40 0.40 0.36 0.31
0.34 0.37 0.33 0.29 0.26 0.26 0.26 0.22 0.32 0.38 0.35 0.41 0.49 0.57 0.65 0.74 0.80 0.83 0.82 0.80 0.81 0.85 0.89 0.94 0.90 0.87 0.88 0.88 0.86 0.83 0.81 0.82 0.80 0.77 0.74 0.72 0.69 0.62 0.52 0.49 0.48 0.47 0.47 0.48 0.45 0.42 0.42 0.37 0.34
0.38 0.34 0.33 0.33 0.28 0.20 0.25 0.22 0.21 0.30 0.32 0.42 0.52 0.57 0.66 0.71 0.76 0.74 0.72 0.75 0.75 0.80 0.84 0.86 0.82 0.81 0.83 0.85 0.87 0.85 0.80 0.75 0.69 0.66 0.59 0.53 0.52 0.53 0.55 0.56 0.52 0.52 0.50 0.48 0.46 0.45 0.43 0.42 0.38
0.36 0.30 0.21 0.19 0.17 0.15 0.25 0.19 0.18 0.29 0.34 0.43 0.48 0.54 0.66 0.68 0.67 0.66 0.67 0.67 0.73 0.78 0.81 0.82 0.80 0.79 0.84 0.84 0.80 0.75 0.70 0.64 0.58 0.56 0.52 0.51 0.50 0.51 0.50 0.52 0.51 0.51 0.49 0.49 0.46 0.44 0.43 0.43 0.39
0.29 0.28 0.20 0.11 0.14 0.17 0.26 0.19 0.26 0.35 0.40 0.50 0.59 0.59 0.65 0.64 0.65 0.66 0.68 0.72 0.76 0.78 0.79 0.78 0.78 0.78 0.79 0.74 0.67 0.70 0.63 0.62 0.61 0.57 0.54 0.47 0.45 0.45 0.47 0.46 0.45 0.44 0.47 0.47 0.46 0.43 0.43 0.44 0.40
0.27 0.22 0.30 0.21 0.22 0.19 0.21 0.25 0.31 0.36 0.39 0.47 0.55 0.56 0.58 0.61 0.63 0.67 0.71 0.75 0.77 0.77 0.76 0.77 0.76 0.73 0.70 0.65 0.69 0.65 0.67 0.67 0.56 0.48 0.45 0.45 0.45 0.40 0.37 0.40 0.40 0.41 0.42 0.43 0.44 0.41 0.42 0.41 0.38
0.30 0.31 0.20 0.24 0.15 0.11 0.14 0.15 0.18 0.24 0.29 0.39 0.46 0.49 0.54 0.58 0.62 0.67 0.71 0.76 0.76 0.75 0.76 0.76 0.71 0.66 0.65 0.68 0.69 0.70 0.63 0.54 0.46 0.45 0.43 0.40 0.37 0.35 0.34 0.32 0.32 0.35 0.38 0.41 0.42 0.40 0.40 0.40 0.38
0.28 0.24 0.25 0.24 0.19 0.12 0.09 0.11 0.20 0.22 0.29 0.33 0.42 0.49 0.53 0.57 0.61 0.67 0.71 0.74 0.74 0.74 0.72 0.70 0.67 0.64 0.68 0.71 0.70 0.60 0.55 0.48 0.45 0.42 0.38 0.36 0.35 0.34 0.32 0.32 0.33 0.35 0.37 0.40 0.40 0.41 0.40 0.35 0.35
0.31 0.29 0.24 0.15 0.14 0.16 0.15 0.11 0.20 0.23 0.28 0.34 0.40 0.48 0.55 0.60 0.62 0.67 0.69 0.70 0.69 0.70 0.70 0.66 0.63 0.64 0.68 0.65 0.57 0.56 0.47 0.45 0.41 0.37 0.36 0.37 0.36 0.35 0.34 0.36 0.37 0.36 0.37 0.40 0.40 0.37 0.35 0.34 0.33
Wind_Speed
13 13 12 12 13 14 16 17 14 14 13 10 11 13 13 11 14 14 14 16 18 17 15 16 13 11 9 7 5 4 3 2 1 1 0 2 3 4 4 5 6 7 7 8 9 10 11 12 12
13 12 11 11 13 15 12 12 13 11 10 12 10 11 11 11 11 14 15 17 18 17 17 17 14 11 9 7 5 4 3 3 2 2 2 3 3 3 4 4 6 7 8 8 10 11 12 13 13
14 13 11 11 13 15 11 9 10 9 9 9 10 9 12 11 9 13 15 17 18 17 17 17 14 12 9 7 5 4 4 3 3 4 5 4 3 3 3 5 6 7 8 9 10 12 13 13 14
13 13 12 13 12 9 10 11 11 9 6 10 12 10 10 13 14 13 17 17 17 18 18 17 14 12 9 7 6 5 4 4 6 6 4 3 2 2 3 5 6 7 8 9 10 11 12 13 14
13 12 14 13 11 10 12 13 12 9 11 9 13 17 12 11 14 18 18 19 19 17 17 15 14 11 9 7 6 5 6 7 7 5 4 3 2 2 3 4 6 7 8 9 10 11 12 14 15
14 13 13 14 10 11 13 14 11 9 7 8 8 9 8 13 14 16 19 20 17 16 15 14 12 10 9 7 7 7 8 8 6 6 4 3 1 1 3 4 6 8 9 10 10 11 13 14 15
15 13 13 10 7 7 13 13 12 9 11 9 7 10 6 10 11 15 14 12 14 15 14 13 12 10 9 8 8 9 9 8 7 5 4 2 0 2 4 5 7 8 9 10 11 12 14 16 17
13 12 12 9 8 7 11 12 9 8 8 6 9 8 8 10 12 13 13 12 14 14 13 12 11 10 9 9 10 10 9 8 6 5 4 3 3 4 5 7 9 9 11 11 12 14 16 18 18
13 13 13 11 10 8 10 10 8 6 7 6 6 5 6 13 12 13 14 14 14 14 13 12 11 10 10 10 10 10 9 8 6 5 5 5 6 7 8 9 10 11 12 13 14 16 18 19 20
14 13 10 11 11 11 11 12 8 8 6 6 5 5 12 13 13 14 13 14 14 13 12 11 10 10 10 10 10 9 9 8 7 7 8 8 9 10 11 11 12 12 14 15 17 19 20 21 22
13 12 7 10 11 10 11 10 14 8 5 7 6 11 14 13 13 13 14 14 13 12 11 10 10 10 10 10 10 9 9 8 8 9 10 11 11 12 13 14 15 15 17 18 19 20 22 24 24
12 10 8 10 11 10 15 13 10 10 1 4 7 13 14 14 14 13 13 13 12 11 10 10 10 10 9 9 9 8 9 9 10 11 12 13 14 14 14 15 16 17 18 20 22 23 26 26 26
12 8 8 8 7 13 11 9 7 7 2 7 11 13 14 13 13 12 12 12 12 11 10 9 9 9 9 8 8 9 10 11 12 13 14 14 14 15 16 17 18 19 21 23 26 27 28 28 28
9 9 9 9 11 9 8 8 8 6 7 11 13 13 13 12 13 12 12 12 11 10 9 8 8 7 8 8 9 9 11 13 16 17 16 14 12 15 17 19 20 23 25 28 29 30 30 29 31
11 10 8 9 10 9 10 8 6 5 9 12 12 11 12 12 11 11 11 11 11 10 9 8 7 7 9 9 9 9 11 16 16 16 15 16 17 18 19 22 24 26 28 29 30 31 31 32 32
10 10 7 7 11 10 12 10 5 6 11 12 11 10 10 10 10 10 9 10 10 9 10 9 9 9 10 11 12 13 14 17 14 13 16 18 19 22 23 25 26 28 28 29 30 30 32 34 35
10 9 8 7 7 10 11 8 5 7 11 11 11 10 11 9 9 8 8 9 10 10 11 11 12 12 13 16 17 19 19 17 14 16 16 18 21 23 24 26 27 28 29 30 31 33 34 36 36
12 8 9 9 6 10 11 7 6 8 12 12 12 11 11 10 9 8 9 9 10 11 12 13 14 15 16 19 17 17 15 15 15 16 19 21 22 23 25 26 28 29 30 31 33 35 37 38 38
8 8 9 6 6 8 9 9 7 8 12 13 13 13 12 11 9 9 10 11 12 13 14 15 15 15 15 15 14 14 15 16 17 19 20 22 23 24 25 27 29 30 32 34 36 37 39 39 40
7 8 7 6 7 7 9 9 7 7 9 12 13 13 13 11 11 11 12 12 13 14 14 14 14 14 14 14 14 15 15 17 18 20 22 23 24 26 28 30 32 33 35 36 37 39 40 41 42
6 7 9 7 10 8 10 9 10 7 8 9 13 13 13 12 12 11 12 12 11 11 11 11 12 13 13 13 14 16 17 18 20 22 24 25 27 29 31 33 34 35 37 38 39 40 42 43 44
8 5 8 10 10 9 12 9 11 10 9 11 12 14 13 12 11 10 10 9 9 8 9 10 10 10 12 13 15 16 18 20 22 24 26 27 29 32 34 35 37 38 39 40 41 42 43 45 45
6 7 7 7 8 9 11 11 6 11 13 13 12 13 13 12 11 10 9 8 7 7 8 9 10 11 12 14 15 17 19 21 23 25 28 30 32 34 36 38 39 40 40 41 42 43 46 46 46
8 7 6 7 8 11 10 11 10 11 15 15 14 14 14 13 12 10 9 8 7 7 7 8 9 11 13 14 16 18 20 23 25 28 30 32 35 37 38 39 40 41 42 43 43 46 47 47 47
9 10 6 7 8 10 6 11 15 10 11 14 16 15 14 13 12 11 10 9 8 8 9 10 11 12 14 15 18 21 23 25 28 30 32 35 36 38 39 41 42 42 43 44 45 47 48 47 47
9 9 8 8 7 7 7 8 5 6 8 11 13 13 13 14 13 12 11 10 10 10 11 12 13 14 16 18 20 23 26 28 30 32 35 36 37 39 41 41 42 43 45 46 47 48 48 48 48
7 9 6 6 6 7 7 6 8 6 6 9 13 13 14 14 14 13 12 12 12 13 13 14 16 17 19 21 23 26 28 30 31 34 36 37 38 39 40 42 44 46 47 48 48 48 49 48 47
8 7 7 7 6 6 4 5 4 4 7 9 13 14 15 15 15 14 14 14 15 15 16 17 18 19 21 24 26 29 30 31 33 36 37 38 38 40 43 45 47 48 48 48 48 49 48 46 43
8 8 6 6 6 5 4 2 3 4 6 9 12 14 15 16 16 16 17 17 17 18 18 19 20 22 24 26 28 30 31 33 35 36 37 38 40 43 45 47 48 48 48 48 47 47 46 42 39
9 9 10 8 7 5 5 7 4 5 7 9 12 14 16 17 18 18 19 19 19 20 21 21 23 24 27 28 30 32 33 35 36 37 37 39 42 45 47 48 48 48 47 47 46 45 40 38 35
Wind_Direction
242 244 247 250 251 249 253 246 247 233 235 244 238 238 226 251 239 237 213 206 195 194 195 190 192 191 193 197 207 223 237 247 264 275 341 86 94 76 52 39 30 23 16 11 7 4 360 355 352
240 239 243 254 252 249 245 249 232 225 216 233 240 228 223 227 236 218 205 198 196 196 191 191 191 193 197 204 215 228 232 240 238 193 137 122 105 71 47 31 21 15 10 8 6 1 356 351 347
235 233 243 252 255 253 254 226 199 205 217 228 235 230 227 226 214 199 192 193 193 197 190 190 192 196 200 207 216 224 229 223 188 156 143 131 108 72 39 23 16 14 12 9 5 1 0 358 353
232 231 241 252 256 246 242 201 197 197 212 224 228 223 219 222 215 207 200 197 192 185 187 185 190 196 202 208 213 218 213 185 160 152 147 134 104 55 33 22 15 12 6 3 2 2 3 2 1
226 235 243 249 249 241 227 204 218 228 224 239 227 226 228 214 208 215 203 189 178 178 180 187 192 197 200 205 210 205 180 165 161 158 149 135 100 60 31 21 12 5 1 358 357 356 355 353 353
227 238 242 243 243 237 217 211 207 209 203 222 244 199 212 217 220 206 193 179 185 187 186 189 194 195 199 204 200 185 172 169 167 161 156 144 106 39 13 3 357 354 352 350 349 348 348 348 348
231 231 245 240 231 212 206 209 213 210 214 230 212 198 218 203 194 180 175 177 181 182 185 190 194 198 199 200 191 179 176 175 173 171 169 176 252 326 333 334 334 336 338 338 339 339 339 339 339
227 232 227 224 215 199 197 201 200 229 233 202 212 219 216 194 187 188 190 187 182 182 186 192 192 196 199 196 186 183 182 181 184 188 202 236 276 300 311 317 318 323 327 328 328 329 330 330 330
222 229 227 212 208 200 201 207 222 217 198 202 206 225 200 174 172 175 176 174 178 183 188 187 193 195 194 189 187 188 190 192 201 214 234 261 280 291 300 305 308 311 318 320 322 324 324 325 325
217 227 226 228 224 213 195 194 220 211 199 204 196 175 157 163 166 167 171 174 176 178 181 186 187 187 187 189 191 195 201 211 226 241 255 271 280 286 292 297 302 304 307 312 317 317 318 319 319
208 223 219 218 205 198 191 208 207 207 214 206 191 165 161 161 163 164 165 167 169 172 178 184 187 189 191 194 198 204 214 229 246 257 264 273 279 286 290 294 298 299 302 306 310 312 314 313 313
203 221 229 202 189 183 170 174 198 205 168 190 168 159 160 164 166 166 168 170 173 178 180 184 187 190 194 198 206 216 231 246 258 264 268 273 280 283 288 295 296 298 301 304 306 308 309 311 309
207 193 185 165 161 163 165 184 182 185 179 153 157 161 166 166 168 171 173 174 173 173 173 177 183 191 199 206 218 234 250 261 267 272 275 277 278 282 288 294 296 299 301 304 304 305 306 304 306
185 191 185 194 177 167 174 172 182 159 157 143 149 159 161 164 166 169 171 174 176 177 181 186 193 204 215 222 235 251 265 274 274 276 271 273 278 288 290 292 295 299 302 303 303 304 304 302 302
165 162 170 182 174 181 175 169 159 167 159 150 150 149 153 158 163 169 174 179 185 191 194 200 212 223 230 234 248 257 280 286 281 275 269 279 282 290 293 294 297 300 301 302 301 303 303 303 302
182 183 186 183 189 191 195 171 166 174 169 164 159 158 160 165 171 175 184 195 201 205 212 222 231 240 244 249 257 262 287 292 290 278 277 280 285 291 296 299 300 302 302 303 304 304 303 303 302
187 184 178 168 188 180 194 178 182 176 179 176 179 178 179 174 178 188 200 208 215 222 228 236 244 251 256 265 264 284 290 298 283 288 292 293 296 298 298 300 301 302 303 303 304 303 303 303 302
184 170 182 177 174 188 190 182 192 188 191 192 194 194 194 197 203 213 222 228 235 239 244 249 256 263 266 276 288 287 286 295 297 296 298 300 300 300 301 302 302 303 303 303 304 304 304 303 302
184 182 166 158 175 175 195 189 184 195 202 203 205 207 210 215 223 231 239 242 245 250 252 256 262 264 273 284 285 290 293 297 299 301 302 303 303 303 303 303 304 304 304 304 305 305 305 305 304
189 187 182 188 187 199 188 183 190 200 206 216 214 217 221 226 233 242 247 248 251 252 253 255 257 263 274 280 285 293 297 300 302 303 305 305 306 306 306 306 306 306 305 305 306 307 306 305 304
189 206 190 195 192 204 198 207 210 215 221 225 225 227 229 233 239 243 245 245 245 245 251 253 258 263 272 278 288 296 300 303 305 306 307 306 306 307 307 307 306 306 306 305 305 306 307 305 304
199 211 194 176 190 210 214 230 219 227 233 234 229 228 229 232 234 235 233 232 233 239 256 261 260 265 276 283 291 295 301 303 307 307 307 307 307 307 307 307 306 306 306 305 305 306 307 306 305
208 199 197 204 221 230 222 248 226 232 237 232 227 222 221 223 226 224 221 224 231 251 262 262 265 275 282 290 296 299 303 306 308 309 308 307 307 307 307 306 306 306 306 305 306 306 308 306 305
177 188 199 223 242 245 245 254 247 238 243 229 223 222 221 222 217 216 218 228 240 259 267 267 272 281 289 294 299 303 305 307 308 310 309 308 307 307 307 307 306 306 306 305 306 307 308 306 305
220 217 236 244 240 255 257 260 259 263 254 227 217 215 215 213 214 215 221 228 243 264 271 275 280 288 293 297 301 305 307 308 309 310 310 310 309 308 308 308 307 307 307 306 306 307 307 305 305
219 238 243 255 249 261 252 252 253 253 246 223 211 209 208 209 213 220 227 240 255 267 273 277 283 290 295 299 302 304 306 308 309 310 311 310 310 309 310 310 309 309 307 307 306 307 307 305 305
217 231 245 243 259 259 249 246 246 253 230 215 208 210 212 215 220 229 239 250 262 269 274 279 285 291 296 299 302 305 307 308 308 310 312 311 311 312 312 311 311 310 308 307 306 307 306 305 304
239 206 228 229 235 239 219 258 257 234 222 219 215 217 220 224 231 240 247 258 265 271 277 282 286 291 296 299 302 306 307 308 309 311 312 312 313 313 313 313 312 311 309 308 307 307 306 305 303
218 222 224 223 235 238 262 248 284 286 244 232 229 229 231 236 242 249 255 262 267 273 278 282 286 291 296 300 303 305 307 308 309 311 312 313 313 314 314 314 314 312 311 309 308 308 306 304 302
231 222 215 227 215 235 266 278 254 287 278 254 246 243 245 248 251 255 259 264 270 273 277 282 286 291 297 300 303 305 306 308 309 311 312 313 315 315 315 315 315 314 313 312 310 308 306 304 302